Find Telesat LEO 3

NORAD ID: 57392 Int'l Des: 2023-100 Owner: TCANL Country: CA operational
LEOCIRCULARRETROGRADESSO

Live Position

Loading 3D Globe...

About Telesat LEO 3

Description loading...

Upcoming Passes

Passes for default location (London). Set your location on the main map for personalized predictions.

Altitude History

Loading altitude history...

Two-Line Element Set

1 57392U 23100G 26105.60042848 -.00000046 00000-0 -12288-5 0 9996
2 57392 99.5543 230.5315 0018483 174.2662 185.8698 13.68418917137086
Epoch: Apr 15, 2026 • Age: 15 hours

Current Status

Altitude 1004.2 km
Velocity 7.36 km/s
Sub-Earth Point 52.40°N, 143.34°E
Launch Date Jul 18, 2023
Age 2.7 years
Type other

Technical Details

Classification Payload
Mass 30.00 kg
Dry Mass 30.00 kg
Total Mass 30.00 kg
Length 0.50 m
Diameter 0.30 m
Span 1.30 m
Shape Box + 2 pan
Manufacturer UTIAS
Bus Type Defiant
Phase Status In Orbit
Owner/State TCANL/CA

Most Searched